SCP
4 3 3 3 4 4 4 4 3 2 2 1 1 1 2 2 1 1 1 1 1 1 0 1 1 1 1 1 1 1 1 1 1 1 1 2 2 1 2 2 2 2 2
5 4 3 2 3 5 5 4 3 3 2 2 1 1 1 1 1 1 1 1 1 1 1 1 1 1 1 1 1 1 2 1 1 1 1 2 2 2 2 2 2 2 2
5 4 3 2 3 4 5 5 4 3 3 2 2 1 1 1 1 1 1 1 1 1 1 1 1 1 2 2 2 2 2 2 2 2 2 2 2 2 2 2 2 2 3
5 4 3 2 3 4 4 4 5 4 3 3 2 2 1 1 1 1 1 1 1 1 2 2 2 2 2 2 2 3 3 2 2 2 2 2 2 2 2 2 2 2 2
4 3 3 2 2 3 4 4 5 5 4 4 3 3 2 2 1 1 2 2 2 2 2 2 2 3 3 3 3 3 3 3 3 2 2 2 2 2 2 2 2 2 2
3 3 3 3 2 2 3 4 5 5 4 4 4 4 3 2 2 2 2 2 2 3 3 3 3 3 3 3 3 3 3 3 3 2 2 2 3 3 3 2 2 2 2
3 3 3 3 3 3 3 4 5 5 5 4 4 4 3 3 2 3 2 2 3 3 3 3 3 3 3 3 3 4 3 3 3 3 3 2 3 3 3 3 2 2 2
3 3 4 4 4 4 4 6 6 6 5 4 4 4 3 3 2 3 3 3 3 4 4 4 4 3 3 3 3 3 3 3 3 3 3 3 3 3 3 3 2 2 2
4 4 5 5 5 4 5 6 8 8 7 5 4 4 4 3 3 3 3 3 3 4 4 4 4 4 3 3 3 3 3 3 3 4 4 4 4 4 4 4 3 3 2
4 5 6 6 6 5 5 6 8 9 9 7 5 4 4 4 4 4 4 4 4 3 4 4 4 3 3 3 3 3 4 4 4 4 4 4 4 4 4 4 4 3 3
5 6 7 7 6 5 4 5 6 8 9 8 6 5 5 4 4 4 5 4 4 4 4 4 3 3 3 3 3 4 4 4 4 4 4 4 4 4 4 4 4 4 4
6 6 7 7 6 5 5 5 5 7 8 8 8 6 6 6 5 5 5 5 5 4 4 4 3 3 3 3 4 4 3 3 3 3 3 3 4 4 4 4 4 4 4
6 6 6 7 7 7 7 7 7 7 8 8 8 8 8 8 7 6 5 5 5 5 5 5 4 3 3 3 4 4 3 3 3 3 3 3 3 3 4 4 4 4 4
8 9 11 13 14 14 13 11 10 9 9 10 10 10 10 9 8 7 6 5 5 6 6 6 5 4 4 3 3 3 3 3 3 3 4 4 4 4 5 4 4 4 4
14 17 21 23 23 21 17 13 11 11 12 13 12 11 11 10 8 7 7 7 6 6 6 6 5 5 4 3 3 3 4 4 4 5 5 5 5 5 5 5 4 5 5
16 21 26 28 28 23 17 12 10 12 14 14 12 12 13 12 10 8 7 8 7 7 7 7 7 6 5 4 3 3 4 4 4 5 6 6 5 5 5 4 3 4 4
15 19 23 25 23 19 14 12 11 11 13 12 12 12 15 15 12 9 9 9 9 8 8 9 9 8 7 5 4 3 4 4 4 5 6 6 5 5 5 5 3 3 3
14 15 17 18 16 14 12 12 11 11 11 10 11 13 16 17 16 12 10 10 10 10 10 11 12 11 9 6 5 4 5 5 5 6 6 6 5 5 5 5 5 4 4
13 13 13 13 12 11 11 11 11 11 10 11 11 13 16 19 19 16 14 13 13 12 11 11 12 12 10 7 5 5 6 6 6 7 6 5 4 3 3 4 4 5 5
12 12 12 11 11 11 11 12 12 11 11 11 12 13 16 19 20 18 17 17 16 14 13 12 12 12 10 7 4 4 5 6 5 5 4 3 2 2 2 3 4 5 5
12 11 11 10 10 11 11 11 12 12 12 12 12 13 15 16 17 17 18 18 18 17 16 16 14 12 9 5 2 2 3 4 4 3 3 2 2 1 1 2 3 4 4
12 11 11 10 11 11 12 12 12 13 14 13 12 11 12 12 13 15 16 17 17 18 19 19 15 11 8 5 2 1 2 2 3 3 3 2 1 1 1 2 2 3 3
12 12 12 12 13 14 14 14 14 13 13 12 10 9 9 10 10 12 14 13 14 16 20 20 16 11 8 5 3 1 1 1 2 2 2 1 1 1 1 1 2 2 3
14 14 14 15 16 16 15 14 14 14 13 12 11 11 10 10 10 10 9 8 9 12 16 19 16 12 8 6 4 2 1 1 2 2 2 2 2 2 2 2 2 2 3
16 16 16 16 15 13 13 13 14 14 15 15 14 13 12 10 9 8 6 6 6 8 11 14 14 11 7 5 4 4 4 3 3 3 4 5 5 5 4 4 3 3 4
18 17 17 14 11 9 10 12 13 14 16 17 16 14 12 10 8 7 6 5 5 6 7 9 11 10 6 4 4 5 5 4 3 4 6 7 7 7 6 5 5 4 4
Wind_Speed
11 11 10 10 10 9 7 6 5 5 3 3 3 2 2 2 2 3 4 4 3 3 2 2 3 2 2 2 3 3 3 2 2 2 2 1 1 2 2 2 2 3 3
12 11 11 10 11 10 8 7 6 6 4 3 2 2 3 2 3 2 4 4 3 3 3 2 2 3 3 3 3 2 2 1 2 2 2 1 1 1 2 2 3 3 3
13 12 11 10 11 11 10 8 7 6 5 4 3 3 2 1 2 3 3 3 3 3 1 3 2 2 2 3 3 3 3 2 2 1 1 1 1 1 1 2 2 2 3
14 13 12 10 11 11 11 9 8 6 5 5 4 4 4 3 3 3 3 3 3 3 3 2 2 1 1 2 3 3 2 2 2 1 1 1 1 1 1 1 2 3 3
14 14 13 12 11 12 11 9 8 7 6 5 4 3 3 3 3 3 3 3 3 3 3 3 3 2 1 2 2 2 2 1 1 1 1 1 1 1 2 2 2 2 2
12 13 13 12 11 11 11 11 9 7 6 5 4 4 4 3 3 3 4 3 3 3 3 3 3 3 2 2 2 2 2 2 1 1 1 1 1 2 2 2 2 2 3
12 12 12 13 11 12 11 11 10 8 7 6 5 5 4 3 3 3 4 4 3 3 3 3 3 3 2 2 2 2 2 2 2 2 2 2 2 1 1 1 2 2 2
11 11 12 12 11 12 11 11 10 9 8 7 5 5 4 3 3 3 3 3 2 2 4 3 3 3 3 3 2 1 2 2 2 3 2 2 2 1 1 1 1 1 2
10 11 12 12 11 10 10 11 11 9 8 8 6 5 5 4 3 3 3 2 2 2 4 4 3 3 3 2 2 2 2 1 2 3 3 2 2 2 2 1 2 2 2
8 8 10 11 11 10 9 10 10 9 8 8 7 6 5 4 3 3 4 2 1 1 3 3 3 3 3 2 2 2 2 3 3 3 3 3 3 2 2 2 2 2 2
7 7 7 9 11 10 10 9 10 9 8 8 6 5 6 5 4 3 3 3 2 2 2 3 3 3 3 3 3 3 3 3 3 3 4 4 3 2 2 2 2 2 2
7 8 9 8 8 10 10 9 9 9 9 8 7 5 5 5 5 4 3 3 2 2 2 2 2 3 3 2 3 4 3 3 3 3 3 3 3 3 3 2 2 2 2
6 7 8 8 7 6 6 8 8 8 9 8 8 6 6 5 5 4 4 3 3 3 2 2 2 2 2 2 2 3 3 3 3 3 3 4 3 3 3 3 3 2 3
4 6 7 6 6 6 5 5 6 7 7 7 8 7 6 5 5 4 3 3 3 3 3 3 3 2 2 2 2 3 3 3 3 4 4 4 4 4 4 4 3 3 3
5 5 5 5 5 6 5 5 4 4 5 6 6 7 6 5 5 5 4 4 4 4 3 3 2 2 2 2 2 3 3 3 3 3 3 4 4 4 3 3 3 3 3
4 4 4 5 4 5 5 5 4 4 4 4 4 5 6 5 5 4 4 4 4 3 3 3 3 3 3 2 2 1 2 2 2 3 3 3 2 3 3 4 4 4 4
5 4 3 3 3 4 4 4 5 4 4 4 3 3 4 5 4 4 4 4 4 4 3 3 3 3 2 1 1 2 2 2 3 3 2 4 3 2 2 4 5 5 6
4 4 3 2 2 3 3 3 4 4 5 4 3 3 3 4 4 4 4 4 4 4 4 4 4 3 2 2 2 2 3 3 3 3 3 3 2 2 2 3 3 4 4
3 3 3 2 2 2 2 3 3 4 4 4 4 4 4 4 4 4 4 4 3 3 3 3 3 3 2 2 3 2 3 3 4 3 3 3 2 2 3 3 3 3 4
3 3 2 2 2 2 2 2 2 3 3 3 3 4 3 3 4 4 3 3 3 3 3 3 3 3 3 4 4 3 2 3 3 3 2 3 2 2 2 2 4 5 4
3 3 3 3 3 3 3 2 1 1 1 2 2 3 3 3 3 3 2 2 2 3 3 3 3 3 3 5 5 4 2 3 3 3 2 1 1 2 3 4 4 5 5
3 3 4 4 3 3 3 2 2 1 2 2 2 1 1 1 2 2 2 2 3 3 3 3 3 2 2 3 4 4 4 4 4 3 2 2 2 3 4 4 5 6 5
3 4 4 3 3 3 3 2 2 2 2 2 2 2 1 1 0 1 2 2 2 2 2 2 2 1 1 1 1 3 4 5 3 3 3 3 4 4 4 6 6 4 3
4 4 3 4 4 3 3 2 2 1 1 1 1 1 1 1 1 1 1 0 0 1 1 1 0 0 0 1 1 1 2 3 3 3 4 5 4 4 4 3 3 4 3
4 4 4 4 4 4 3 2 2 1 1 0 1 1 1 1 1 1 0 0 1 1 1 1 0 0 1 1 1 1 2 2 2 2 3 3 2 2 3 3 3 3 3
3 4 4 3 3 3 4 3 3 2 1 0 1 1 1 1 1 1 2 3 2 3 2 2 2 2 1 1 2 3 3 4 3 2 3 3 3 3 3 3 2 2 2
Wind_Direction
156 150 151 146 144 146 147 147 146 137 147 145 150 143 144 154 139 139 133 136 148 137 152 131 139 160 135 145 147 143 146 163 167 134 112 139 190 167 155 165 160 162 168
155 153 156 154 152 151 152 153 149 152 164 154 157 161 156 165 150 131 133 148 150 149 158 150 162 162 147 160 163 154 146 188 187 167 144 148 150 190 178 170 180 182 179
160 159 162 161 158 155 158 165 161 161 170 153 158 156 138 165 136 138 144 157 154 155 162 149 167 153 168 167 172 181 182 190 226 212 176 170 171 164 193 190 177 178 181
162 162 165 166 164 160 161 161 157 161 165 162 173 169 158 163 167 159 151 160 162 162 164 161 161 168 185 157 185 177 197 190 222 225 204 182 148 158 162 202 180 194 204
162 165 169 168 168 165 163 161 157 163 165 173 173 172 167 167 169 158 148 158 171 179 173 165 165 176 190 183 183 137 186 217 238 248 211 181 193 193 171 192 197 211 212
161 163 165 165 169 167 164 162 160 165 168 177 178 177 179 175 163 158 157 173 174 178 188 179 172 180 191 194 186 184 201 215 251 281 282 231 216 208 192 194 202 212 220
161 162 164 164 167 167 167 164 160 167 171 178 183 179 184 178 168 171 177 186 183 178 186 186 175 191 194 194 192 193 223 214 217 241 263 270 257 235 216 195 215 224 229
162 163 163 163 165 167 166 160 160 168 174 179 185 174 179 187 186 193 196 181 195 181 165 174 177 195 197 207 195 214 217 215 227 247 253 262 270 259 229 210 201 241 247
164 166 164 163 164 166 163 161 159 166 174 177 179 174 181 190 195 181 194 191 188 185 155 169 177 192 199 208 198 224 233 222 222 237 240 246 259 261 250 228 218 220 250
158 157 159 161 164 164 159 160 160 166 172 175 179 178 183 189 198 189 179 188 200 203 163 174 184 192 195 196 203 227 224 218 224 227 234 238 249 246 242 237 238 232 239
144 143 154 159 159 161 163 162 160 164 171 177 177 177 175 185 191 197 189 183 194 208 197 192 191 196 196 198 203 227 224 224 230 237 232 236 246 255 258 242 232 230 220
142 152 157 150 156 161 167 164 166 171 174 176 171 179 171 176 184 190 189 184 183 192 199 203 201 208 203 203 213 234 235 231 234 245 246 244 245 245 257 267 259 245 224
139 144 141 146 149 152 156 162 168 173 175 175 173 177 176 175 182 186 180 180 178 185 191 183 192 205 214 215 226 239 247 245 238 240 243 247 242 241 243 245 258 257 253
127 132 131 136 140 144 143 149 167 169 171 172 172 170 173 176 178 179 176 183 183 186 197 189 196 207 225 228 238 245 245 247 247 243 241 243 239 237 243 243 247 259 264
120 116 127 129 137 144 146 150 154 153 160 161 165 167 168 170 176 178 178 186 191 198 194 197 203 215 225 241 250 247 238 245 252 251 245 243 241 232 240 255 250 249 250
114 104 105 127 139 145 150 149 146 144 145 153 162 160 166 173 182 182 180 184 192 200 197 200 204 219 240 263 235 247 264 264 267 271 273 254 244 232 231 250 262 254 245
125 119 119 116 137 149 145 145 147 147 151 158 163 161 163 170 178 189 184 193 196 199 203 206 208 206 235 269 187 243 251 257 260 263 272 274 268 246 244 244 255 255 246
120 124 126 132 150 148 148 147 159 157 160 163 168 166 170 173 175 186 192 199 199 202 204 212 216 210 216 197 194 252 230 253 253 246 249 258 272 274 277 248 246 249 244
92 103 125 141 133 148 149 151 166 162 164 168 172 175 177 178 181 191 199 197 197 203 206 207 211 212 192 169 177 206 244 256 266 256 257 253 239 249 270 264 258 257 259
90 89 92 94 105 109 121 149 165 166 172 176 176 169 177 186 192 194 197 202 202 213 220 219 211 206 187 177 183 198 252 265 268 256 245 246 241 241 241 253 262 262 266
70 88 94 81 65 71 87 97 124 144 148 150 160 160 179 200 190 187 187 206 212 216 219 222 217 203 188 178 185 194 239 269 275 274 269 253 143 262 256 251 256 258 274
83 84 84 84 77 75 83 85 70 62 84 102 116 128 155 227 184 177 198 208 221 219 218 218 225 210 170 162 191 209 242 278 282 284 294 314 289 276 268 258 261 268 275
84 83 85 83 77 83 85 81 61 56 87 102 98 92 78 81 77 190 204 210 216 223 224 209 215 213 168 134 171 214 247 259 265 293 312 315 292 272 261 251 252 259 256
89 83 76 78 74 71 74 79 76 70 93 114 121 119 119 175 165 147 221 230 304 272 252 232 223 159 94 56 14 284 268 278 279 301 299 286 266 260 258 256 247 241 249
89 85 77 75 73 67 62 67 73 80 89 142 171 182 215 222 171 135 51 65 27 36 295 275 83 316 291 296 280 257 267 276 283 288 274 262 258 259 252 246 244 247 247
87 88 82 75 66 59 46 42 45 45 40 246 259 265 243 207 190 141 116 64 83 71 43 58 60 57 45 281 277 274 277 272 253 242 262 263 264 269 274 273 268 263 264